Dewpoint
23 23 21 19 18 17 16 16 15 15 14 14 14 16 16 18 19 17 19 17 18 20
19 18 17 16 16 15 14 13 13 13 12 13 14 14 14 16 16 16 17 18 19 19
15 14 13 13 11 11 11 11 12 12 13 13 14 14 14 16 18 16 17 17 16 17
12 12 11 10 10 10 10 11 11 12 14 14 15 15 15 15 16 16 16 16 18 20
12 11 10 10 10 11 10 12 12 14 15 15 16 16 16 16 17 16 16 17 19 21
12 11 11 11 11 12 12 12 14 15 16 16 18 18 17 17 17 16 17 19 21 22
12 12 12 13 13 14 14 14 15 16 16 17 17 17 17 17 18 18 19 21 23 22
14 14 14 14 14 14 14 14 15 15 16 17 16 11 19 19 19 19 19 20 21 22
15 14 15 14 13 13 14 13 14 15 17 18 13 23 25 23 19 18 18 19 20 21
15 13 13 12 11 12 11 13 15 15 15 14 13 23 25 26 20 19 19 19 20 20
14 12 11 11 10 10 11 14 15 15 14 13 12 23 25 27 21 20 20 20 20 21
10 10 9 9 8 10 12 15 15 14 13 12 12 22 25 25 21 20 20 21 21 24
11 9 8 8 10 12 14 14 14 12 11 16 11 20 25 24 20 20 21 21 26 28
9 8 7 10 13 14 14 14 12 11 11 11 13 17 25 25 21 21 23 26 23 21
Lifted_Index
10 10 10 10 10 10 10 10 11 12 14 16 17 19 20 20 20 20 20 20 20 20
10 10 10 10 10 10 10 11 11 12 14 16 18 19 20 20 20 20 20 20 20 20
10 10 10 10 10 10 10 11 12 13 15 17 19 20 20 20 20 20 20 20 20 20
9 9 10 10 10 10 11 11 13 15 17 18 19 19 19 20 20 20 20 20 20 20
9 9 9 10 10 11 11 13 14 16 18 19 19 19 19 20 20 20 19 20 20 20
9 9 10 10 11 11 12 14 16 18 18 19 19 19 19 20 20 20 20 20 21 21
9 10 10 11 11 12 13 16 17 18 18 18 19 19 20 20 20 20 20 21 22 22
10 11 11 11 12 13 15 17 18 18 18 18 19 19 20 20 20 20 21 22 22 22
11 11 11 11 12 14 16 18 18 18 18 18 19 20 20 20 21 21 21 22 22 22
11 11 11 12 13 15 17 18 18 18 18 19 19 20 21 21 21 22 22 22 22 22
11 11 11 13 15 17 18 18 18 18 18 19 20 21 21 22 22 22 22 22 21 21
11 12 13 14 17 18 18 18 18 18 19 19 20 21 22 22 22 22 22 21 19 19
12 13 15 17 18 19 18 18 18 18 19 20 21 22 22 22 22 22 21 19 18 17
13 14 16 18 19 19 18 18 18 18 20 21 22 22 22 22 21 21 20 18 17 16